• In Hungary
  • List of Countries
  • For 7 days
  • Water Temperature
  • Satellite Maps
  • Weather Map
  • News
  • Weather Widgets
  • user-avatar
    Login

    Hourly Weather Czarnocinek

    Today, 24 September, Monday

    Time Temperature Precipitation Wind Pressure Humidity
    00:00 +8°C° 1.8 mm 4 mps 741 mmHg 92%
    01:00 +8°C° 1.8 mm 5 mps 741 mmHg 91%
    02:00 +8°C° 1 mm 6 mps 742 mmHg 90%
    03:00 +8°C° 1 mm 6 mps 743 mmHg 88%
    04:00 +7°C° 1 mm 6 mps 744 mmHg 86%
    05:00 +8°C° 0.1 mm 7 mps 744 mmHg 85%
    06:00 +8°C° 0.1 mm 7 mps 745 mmHg 84%
    07:00 +8°C° 0.1 mm 7 mps 746 mmHg 83%
    08:00 +9°C° 0.1 mm 8 mps 746 mmHg 76%
    09:00 +10°C° 0.1 mm 8 mps 747 mmHg 70%
    10:00 +11°C° 0.1 mm 9 mps 747 mmHg 64%
    11:00 +11°C° 0.3 mm 9 mps 748 mmHg 61%
    12:00 +12°C° 0.3 mm 9 mps 748 mmHg 58%
    13:00 +12°C° 0.3 mm 9 mps 749 mmHg 55%
    14:00 +11°C° 0.4 mm 8 mps 749 mmHg 59%
    15:00 +10°C° 0.4 mm 8 mps 750 mmHg 63%
    16:00 +10°C° 0.4 mm 7 mps 750 mmHg 67%
    17:00 +9°C° 0.1 mm 6 mps 751 mmHg 69%
    18:00 +8°C° 0.1 mm 6 mps 752 mmHg 72%
    19:00 +7°C° 0.1 mm 5 mps 753 mmHg 75%
    20:00 +6°C° 0 mm 5 mps 753 mmHg 76%
    21:00 +6°C° 0 mm 4 mps 754 mmHg 76%
    22:00 +6°C° 0 mm 4 mps 755 mmHg 77%
    23:00 +5°C° 0 mm 4 mps 755 mmHg 77%

    Tomorrow, 25 September, Tuesday

    Time Temperature Precipitation Wind Pressure Humidity
    00:00 +5°C° 0 mm 4 mps 756 mmHg 78%
    01:00 +5°C° 0 mm 4 mps 757 mmHg 78%
    02:00 +5°C° 0 mm 4 mps 757 mmHg 78%
    03:00 +5°C° 0 mm 4 mps 757 mmHg 78%
    04:00 +4°C° 0 mm 4 mps 758 mmHg 78%
    05:00 +5°C° 0 mm 5 mps 758 mmHg 75%
    06:00 +5°C° 0 mm 5 mps 759 mmHg 73%
    07:00 +6°C° 0 mm 5 mps 759 mmHg 70%
    08:00 +7°C° 0.1 mm 6 mps 760 mmHg 64%
    09:00 +9°C° 0.1 mm 7 mps 761 mmHg 57%
    10:00 +10°C° 0.1 mm 7 mps 761 mmHg 51%
    11:00 +10°C° 0.1 mm 7 mps 761 mmHg 49%
    12:00 +11°C° 0.1 mm 7 mps 762 mmHg 47%
    13:00 +11°C° 0.1 mm 7 mps 762 mmHg 44%
    14:00 +11°C° 0 mm 7 mps 762 mmHg 46%
    15:00 +10°C° 0 mm 6 mps 762 mmHg 47%
    16:00 +10°C° 0 mm 6 mps 763 mmHg 48%
    17:00 +9°C° 0 mm 5 mps 763 mmHg 53%
    18:00 +7°C° 0 mm 4 mps 764 mmHg 59%
    19:00 +7°C° 0 mm 3 mps 764 mmHg 64%
    20:00 +5°C° 0 mm 3 mps 765 mmHg 66%
    21:00 +6°C° 0 mm 2 mps 765 mmHg 67%
    22:00 +5°C° 0 mm 2 mps 766 mmHg 69%
    23:00 +5°C° 0 mm 2 mps 766 mmHg 68%

    Day after tomorrow, 26 September, Wednesday

    Time Temperature Precipitation Wind Pressure Humidity
    00:00 +5°C° 0 mm 2 mps 766 mmHg 67%
    01:00 +4°C° 0 mm 2 mps 766 mmHg 66%
    02:00 +4°C° 0 mm 2 mps 766 mmHg 65%
    03:00 +4°C° 0 mm 2 mps 766 mmHg 64%
    04:00 +3°C° 0 mm 3 mps 766 mmHg 62%
    05:00 +4°C° 0 mm 3 mps 766 mmHg 60%
    06:00 +4°C° 0 mm 3 mps 765 mmHg 59%
    07:00 +5°C° 0 mm 4 mps 765 mmHg 57%
    08:00 +7°C° 0 mm 5 mps 765 mmHg 55%
    09:00 +9°C° 0 mm 5 mps 765 mmHg 52%
    10:00 +11°C° 0 mm 6 mps 764 mmHg 50%
    11:00 +11°C° 0 mm 7 mps 764 mmHg 49%
    12:00 +12°C° 0 mm 7 mps 763 mmHg 47%
    13:00 +14°C° 0 mm 7 mps 762 mmHg 45%
    14:00 +12°C° 0 mm 7 mps 762 mmHg 48%
    15:00 +11°C° 0 mm 7 mps 761 mmHg 51%
    16:00 +11°C° 0 mm 6 mps 760 mmHg 54%
    17:00 +10°C° 0 mm 7 mps 760 mmHg 55%
    18:00 +10°C° 0 mm 7 mps 760 mmHg 56%
    19:00 +10°C° 0 mm 7 mps 759 mmHg 57%
    20:00 +9°C° 0.2 mm 7 mps 759 mmHg 59%
    21:00 +9°C° 0.2 mm 7 mps 758 mmHg 61%
    22:00 +9°C° 0.2 mm 6 mps 758 mmHg 63%
    23:00 +10°C° 0.1 mm 6 mps 758 mmHg 62%

    27 September, Thursday

    Time Temperature Precipitation Wind Pressure Humidity
    00:00 +10°C° 0.1 mm 6 mps 757 mmHg 62%
    01:00 +10°C° 0.1 mm 6 mps 757 mmHg 61%
    02:00 +10°C° 0 mm 7 mps 756 mmHg 62%
    03:00 +10°C° 0 mm 7 mps 756 mmHg 63%
    04:00 +10°C° 0 mm 7 mps 756 mmHg 64%
    05:00 +11°C° 0 mm 7 mps 756 mmHg 67%
    06:00 +11°C° 0 mm 7 mps 756 mmHg 69%
    07:00 +11°C° 0 mm 8 mps 756 mmHg 72%
    08:00 +13°C° 0 mm 8 mps 756 mmHg 71%
    09:00 +15°C° 0 mm 8 mps 756 mmHg 69%
    10:00 +16°C° 0 mm 8 mps 756 mmHg 68%
    11:00 +17°C° 0 mm 8 mps 756 mmHg 66%
    12:00 +18°C° 0 mm 8 mps 755 mmHg 65%
    13:00 +20°C° 0 mm 8 mps 755 mmHg 63%
    14:00 +18°C° 0 mm 7 mps 755 mmHg 65%
    15:00 +18°C° 0 mm 7 mps 755 mmHg 67%
    16:00 +17°C° 0 mm 6 mps 754 mmHg 70%
    17:00 +16°C° 0 mm 5 mps 754 mmHg 74%
    18:00 +15°C° 0 mm 5 mps 754 mmHg 78%
    19:00 +14°C° 0 mm 4 mps 754 mmHg 82%
    20:00 +14°C° 0 mm 4 mps 754 mmHg 82%
    21:00 +14°C° 0 mm 5 mps 753 mmHg 82%
    22:00 +14°C° 0 mm 6 mps 753 mmHg 82%
    23:00 +15°C° 0 mm 6 mps 752 mmHg 82%

    28 September, Friday

    Time Temperature Precipitation Wind Pressure Humidity
    00:00 +15°C° 0 mm 6 mps 752 mmHg 81%
    01:00 +15°C° 0 mm 6 mps 752 mmHg 80%
    02:00 +15°C° 0.2 mm 6 mps 752 mmHg 81%
    03:00 +15°C° 0.2 mm 6 mps 752 mmHg 82%
    04:00 +15°C° 0.2 mm 6 mps 751 mmHg 83%
    05:00 +15°C° 0.1 mm 6 mps 752 mmHg 82%
    06:00 +14°C° 0.1 mm 6 mps 752 mmHg 81%
    07:00 +14°C° 0.1 mm 5 mps 753 mmHg 81%
    08:00 +14°C° 0 mm 5 mps 753 mmHg 74%
    09:00 +14°C° 0 mm 5 mps 754 mmHg 67%
    10:00 +14°C° 0 mm 5 mps 754 mmHg 60%
    11:00 +15°C° 0 mm 4 mps 754 mmHg 55%
    12:00 +17°C° 0 mm 4 mps 754 mmHg 51%
    13:00 +17°C° 0 mm 4 mps 754 mmHg 46%
    14:00 +17°C° 0 mm 3 mps 754 mmHg 47%
    15:00 +16°C° 0 mm 3 mps 754 mmHg 48%
    16:00 +16°C° 0 mm 3 mps 754 mmHg 49%
    17:00 +14°C° 0 mm 3 mps 755 mmHg 53%
    18:00 +14°C° 0 mm 2 mps 755 mmHg 58%
    19:00 +13°C° 0 mm 2 mps 755 mmHg 62%
    20:00 +12°C° 0 mm 2 mps 755 mmHg 63%
    21:00 +12°C° 0 mm 2 mps 756 mmHg 64%
    22:00 +12°C° 0 mm 2 mps 756 mmHg 65%
    23:00 +12°C° 0 mm 2 mps 756 mmHg 65%

    29 September, Saturday

    Time Temperature Precipitation Wind Pressure Humidity
    00:00 +10°C° 0 mm 2 mps 756 mmHg 66%
    01:00 +10°C° 0 mm 2 mps 757 mmHg 66%
    02:00 +10°C° 0 mm 2 mps 757 mmHg 67%
    03:00 +9°C° 0 mm 2 mps 757 mmHg 68%
    04:00 +9°C° 0 mm 2 mps 757 mmHg 69%
    05:00 +9°C° 0 mm 2 mps 758 mmHg 69%
    06:00 +9°C° 0 mm 2 mps 758 mmHg 69%
    07:00 +8°C° 0 mm 2 mps 759 mmHg 69%
    08:00 +10°C° 0 mm 2 mps 759 mmHg 61%
    09:00 +12°C° 0 mm 2 mps 759 mmHg 54%
    10:00 +13°C° 0 mm 2 mps 760 mmHg 46%
    11:00 +14°C° 0 mm 2 mps 760 mmHg 43%
    12:00 +14°C° 0 mm 2 mps 760 mmHg 39%
    13:00 +15°C° 0 mm 2 mps 760 mmHg 35%
    14:00 +15°C° 0 mm 2 mps 760 mmHg 36%
    15:00 +14°C° 0 mm 1 mps 760 mmHg 36%
    16:00 +14°C° 0 mm 1 mps 760 mmHg 37%
    17:00 +13°C° 0 mm 1 mps 760 mmHg 40%
    18:00 +11°C° 0 mm 1 mps 761 mmHg 43%
    19:00 +9°C° 0 mm 2 mps 761 mmHg 46%
    20:00 +8°C° 0 mm 2 mps 761 mmHg 47%
    21:00 +8°C° 0 mm 2 mps 761 mmHg 49%
    22:00 +7°C° 0 mm 2 mps 761 mmHg 50%
    23:00 +7°C° 0 mm 2 mps 761 mmHg 51%
    Show more